www.pogodaiklimat.ru

Погода и климат >> Архив погоды >> Россия >> Приморский край >> Партизанск


ПОГОДА в Партизанске

  • Прогноз погоды в Партизанске
  • Монитор погоды в Партизанске

АРХИВ ПОГОДЫ в Партизанске

Время (UTC), дата Ветер
(напр.,м/с)
 
Видим.   Явления Облачность Т
(С)
Тd
(С)
f
(%)
Тe
(С)
Тes
(С)
Комфортность P
(гПа)
Po
(гПа)
Тmin
(С)
Tmax
(С)
R
(мм)
R24
(мм)
S
(см)
21 11.01 С 3 50 км ясно -11.0 -20.8 44 -17 -17 1025.5 998.2 -14.1 1
00 12.01 С 1 50 км ясно -11.9 -20.6 48 -14 -13 1026.2 998.9 -15.2
03 12.01 ЮВ 1 50 км 1/0
[Ci fib]
-2.7 -20.6 24 -4 +1 1023.8 997.4
06 12.01 Ю 2 50 км 1/0
[Ci fib]
+0.9 -20.0 19 -1 0 1022.2 996.2
09 12.01 Ю 2 50 км ясно -3.1 -21.8 22 -6 -6 1023.7 997.3 +1.3
12 12.01 штиль 0 50 км ясно -5.3 -12.2 58 -6 -6 1025.1 998.5
15 12.01 С 2 50 км ясно -6.9 -15.2 52 -11 -11 1025.5 998.7
18 12.01 СЗ 1 50 км ясно -9.5 -15.7 61 -12 -12 1026.8 999.6
21 12.01 С 2 50 км ясно -11.5 -16.8 65 -16 -16 1026.9 999.5 -11.5 <0.5
00 13.01 С 1 50 км ясно -10.7 -16.8 61 -13 -12 1027.3 1000.1 -12.5
03 13.01 СВ 1 50 км ясно -3.2 -15.7 37 -5 +1 1025.2 998.7
06 13.01 Ю 2 50 км ясно +0.5 -11.7 39 -2 -1 1023.9 997.8
09 13.01 Ю 2 50 км ясно -3.3 -8.2 69 -7 -7 1024.8 998.3 +0.7
12 13.01 СЗ 2 50 км ясно -5.8 -9.1 77 -10 -10 1025.8 999.1
15 13.01 С 2 50 км 4/4 1000 м
[Sc]
-7.3 -9.3 86 -12 -12 1026.2 999.3
18 13.01 С 2 50 км 5/5 1000 м
[Sc]
-8.9 -10.8 86 -13 -13 1026.6 999.5
21 13.01 С 1 50 км 3/3 1000 м
[Sc]
-9.8 -11.7 86 -12 -12 1026.1 999.0 -10.4 <0.5
00 14.01 СЗ 2 50 км 4/3 1000 м
[Sc Ac cast]
-8.9 -11.3 83 -13 -13 1026.5 999.4 -10.9
03 14.01 СЗ 1 50 км 9/5 1000 м
[Cu hum Ci ing]
-3.4 -8.4 68 -5 -3 1024.4 998.0
06 14.01 Ю 2 20 км 10/0
[Ci]
-0.6 -7.5 60 -4 -3 1023.0 996.8
09 14.01 Ю 2 20 км 10/0
[Ci]
-0.6 -7.5 60 -4 -4 1023.0 996.8
12 14.01 В 1 20 км 8/8 1000 м
[Sc]
-3.9 -8.6 70 -6 -6 1022.3 995.9
15 14.01 С 1 20 км 9/9 1000 м
[Sc]
-4.4 -8.7 72 -6 -6 1020.5 994.0
18 14.01 С 1 20 км 10/8 1000 м
[Sc Ci fib]
-6.2 -9.2 79 -8 -8 1018.2 991.6
21 14.01 штиль 0 20 км 10/10 1000 м
[Sc]
-6.7 -9.4 81 -7 -7 1015.6 989.1 -6.8 <0.5
00 15.01 СВ 1 20 км 10/0
[As op]
-6.2 -9.1 80 -8 -8 1013.8 987.3
06 15.01 СЗ 9-15
{18}
20 км {снег} 10/0
[As op]
-4.6 -14.4 46 -13 -13 1011.8 985.5
09 15.01 С 10-17
{21}
50 км ясно -8.9 -18.2 47 -19 -19 1015.6 988.8 -2.4 0.0
12 15.01 С 8-13
{17}
50 км ясно -10.8 -19.3 50 -21 -21 1017.7 990.7
15 15.01 С 4
{16}
50 км 4/0
[Ci fib]
-12.8 -20.2 54 -20 -20 1019.5 992.2
18 15.01 С 5
{11}
50 км ясно -14.4 -24.4 42 -23 -23 1020.6 993.1
21 15.01 С 6
{10}
50 км ясно -15.7 -27.8 35 -25 -25 1020.2 992.6 -16.1 0
00 16.01 СВ 4 50 км ясно -14.7 -26.3 37 -22 -22 1020.0 992.5 -16.2
03 16.01 ЮВ 1 50 км 10/0
[Cs]
-9.7 -24.0 30 -12 -8 1017.9 990.9
06 16.01 Ю 3 50 км 8/0
[Ac As]
-8.9 -23.0 31 -14 -14 1015.5 988.7
09 16.01 СЗ 1 50 км 1/1 1000 м
[Sc]
-10.9 -24.0 33 -13 -13 1014.8 987.8 -8.5
12 16.01 СЗ 1 50 км 6/0
[Cs]
-11.0 -22.8 37 -13 -13 1013.5 986.6
15 16.01 СЗ 7-13
{15}
50 км 3/0
[Ac lent]
-9.0 -22.2 33 -18 -18 1014.0 987.2
18 16.01 СЗ 4
{15}
50 км 8/0
[Ac As]
-11.4 -21.9 41 -18 -18 1014.3 987.2
21 16.01 СЗ 5
{14}
50 км 8/0
[As op Cs]
-13.3 -25.0 37 -22 -22 1013.8 986.6 -13.3 0
00 17.01 СЗ 6-12
{16}
50 км 6/6 600 м
[Cu hum]
-15.2 -26.8 36 -25 -25 1014.9 987.5 -15.2
03 17.01 СЗ 7-14
{18}
50 км 1/1 600 м
[Cu hum]
-15.1 -32.2 22 -25 -24 1015.1 987.6
06 17.01 СЗ 7-15
{17}
50 км ясно -14.7 -32.1 21 -25 -24 1015.8 988.4
09 17.01 С 7-13
{15}
50 км ясно -16.0 -31.7 25 -27 -27 1018.6 991.0 -13.2
12 17.01 С 8-18
{18}
50 км ясно -16.6 -31.7 26 -28 -28 1020.6 992.8
15 17.01 С 6-11
{18}
50 км ясно -17.0 -31.0 29 -27 -27 1022.2 994.4
18 17.01 С 6-11
{15}
50 км ясно -16.7 -29.7 31 -27 -27 1023.0 995.2
21 17.01 С 6
{12}
50 км ясно -17.7 -29.3 36 -28 -28 1023.5 995.6 -17.6 0
00 18.01 С 6 50 км ясно -16.6 -28.9 34 -27 -26 1024.6 996.8 -18.3
03 18.01 СВ 5
{12}
50 км ясно -11.3 -25.8 29 -19 -17 1022.8 995.6
06 18.01 СВ 5
{12}
50 км ясно -11.3 -25.8 29 -19 -18 1022.8 995.6
09 18.01 С 3
{10}
50 км ясно -7.1 -24.0 25 -12 -12 1021.8 995.0
12 18.01 С 5 50 км ясно -12.2 -25.4 32 -20 -20 1025.7 998.3
15 18.01 С 2 50 км ясно -13.1 -25.2 35 -18 -18 1025.8 998.3
18 18.01 С 3 50 км ясно -13.3 -24.9 37 -20 -20 1025.4 997.9

 

Местоположение метеостанции Партизанск (Приморский край, Россия): широта 43.15 долгота 133.00 высота над уровнем моря 208 м.

В архиве по умолчанию представлена погода в Партизанске за последнюю неделю. Архивные данные за месяц целиком и за предыдущие месяцы, начиная с января 2011 года, Вы можете получить, выбрав интересующий диапазон дат из раскрывающегося списка и нажав кнопку "Ввод!".


*Определитесь, кто Вы:
робот инопланетянин человек

Внимание! Время в таблицах - всемирное. Для получения местного времени необходимо прибавить поправку, которая равна 10 ч.

Смотрите также архив погоды в соседних городах и на ближайших метеорологических станциях:

Погода в Находке (Приморский край, Россия) (42 км)
Погода в Многоудобном (Приморский край, Россия) (56 км)
Погода в Лазо (Приморский край, Россия) (71 км)
Погода в Преображении (Приморский край, Россия) (78 км)
Погода в Владивостоке (Приморский край, Россия) (89 км)
Погода на Мысе Назимова (Приморский край, Россия) (90 км)
Погода в Анучино (Приморский край, Россия) (91 км)
Погода в Лучегорске (Приморский край, Россия) (117 км)
Погода в Тимирязевском (Приморский край, Россия) (120 км)
Погода в Чугуевке (Приморский край, Россия) (129 км)

Пояснения к столбцам:

Ветер - указаны скорость ветра в м/с - средняя за 10 мин, порывы в срок и между сроками (в фигурных скобках) и направление, откуда дует ветер: С - северный, СВ - северо-восточный, В - восточный, ЮВ - юго-восточный, Ю - южный, ЮЗ - юго-западный, З - западный, СЗ - северо-западный.
Видимость - горизонтальная дальность видимости в метрах или километрах. При видимости от 1 до 10 км при отсутствии осадков обычно наблюдается дымка, при ухудшении видимости до 1 км и менее - туман. В сухую погоду видимость может ухудшаться дымом, пылью или мглою.
Явления - указаны атмосферные явления, наблюдавшиеся в срок или в последний час перед сроком; фигурными скобками обозначены явления, наблюдавшиеся между сроками (за 1-3 часа до срока); квадратными скобками обозначены град или гололедные отложения с указанием их диаметра в мм.
Облачность - указаны через наклонную черту общая и нижняя облачность в баллах и высота нижней границы облаков в метрах; квадратными скобками обозначены формы облаков: Ci - перистые, Cs - перисто-слоистые, Cc - перисто-кучевые, Ac - высококучевые, As - высокослоистые, Sc - слоисто-кучевые, Ns - слоисто-дождевые, Cu - кучевые, Cb - кучево-дождевые. Подробнее классификацию облаков см. в Атласе облаков (PDF).
T - Температура воздуха - температура, измеренная на высоте 2 м над землей.
Td - Температура точки росы - температура, при понижении до которой содержащийся в воздухе водяной пар достигнет насыщения.
f - Относительная влажность воздуха - влажноcть воздуха, измеренная на высоте 2 м над землей.
Te - Эффективная температура - температура, которую ощущает одетый по сезону человек в тени. Характеристика душности погоды. При расчете учитывается влияние влажности воздуха и скорости ветра на теплоощущения человека.
Tes - Эффективная температура на солнце - температура, которую ощущает человек, с поправкой на солнечный нагрев. Характеристика знойности погоды. Зависит от высоты солнца над горизонтом, облачности и скорости ветра. Ночью, в пасмурную погоду, а также при ветре 12 м/с и более поправка равна нулю.
P - Атмосферное давление - приведенное к уровню моря атмосферное давление.
Po - Атмосферное давление - измеренное на уровне метеостанции атмосферное давление.
Tmin - Минимальная температура - минимум температуры воздуха на высоте 2 м над землей.
Tmax - Максимальная температура - максимум температуры воздуха на высоте 2 м над землей.
R - Количество осадков - Количество выпавших осадков за период времени, мм. При наведении курсора мыши на число - период времени, за который выпало указанное количество осадков.
R24 - Количество осадков - Количество выпавших осадков за 24 часа, мм.
S - Снежный покров - Высота снежного покрова, см. При наведении курсора мыши на число - состояние снежного покрова и степень покрытия местности в баллах.